Location: Pl�tzky
(52.0521°N, 11.8020°E)
Time: 22:20:38
(UTC+00:00)

USA 229 - Visible Passes

Search period start: 21 February 2020 00:00
Search period end: 02 March 2020 00:00
Orbit: 992 x 1220 km, 63.4° (Epoch: 06 February)

Date Brightness Start Highest point End Pass type
(mag) Time Alt. Az. Time Alt. Az. Time Alt. Az.
21 Feb 3.6 18:06:58 10° SSW 18:13:29 70° SE 18:20:17 10° NE visible
21 Feb 4.5 19:58:26 10° W 20:04:52 46° NNW 20:07:45 31° NNE visible
21 Feb 5.4 21:51:18 10° WNW 21:55:13 27° NNW 21:55:13 27° NNW visible
22 Feb 3.9 17:22:36 10° SSW 17:28:52 49° ESE 17:35:27 10° NE visible
22 Feb 4.2 19:13:14 10° WSW 19:19:47 57° NNW 19:24:47 20° NE visible
22 Feb 5.0 21:05:59 10° WNW 21:12:07 34° N 21:12:14 34° N visible
22 Feb 6.0 22:58:17 10° NW 22:59:42 16° NW 22:59:42 16° NW visible
23 Feb 3.8 18:28:12 10° SW 18:34:50 74° NW 18:41:44 11° NE visible
23 Feb 4.9 20:20:38 10° W 20:26:50 36° NNW 20:29:10 29° NNE visible
23 Feb 5.5 22:13:15 10° NW 22:16:38 26° NNW 22:16:38 26° NNW visible
24 Feb 3.7 17:43:24 10° SW 17:50:00 84° SE 17:56:59 10° NE visible
24 Feb 4.7 19:35:17 10° W 19:41:37 42° NNW 19:46:02 20° NE visible
24 Feb 5.1 21:28:06 10° WNW 21:33:29 32° N 21:33:29 32° N visible
24 Feb 6.0 23:19:50 10° NW 23:20:56 15° NW 23:20:56 15° NW visible
25 Feb 4.4 18:50:01 10° WSW 18:56:30 50° NNW 19:02:50 12° NE visible
25 Feb 5.0 20:42:51 10° WNW 20:48:58 33° N 20:50:17 31° NNE visible
25 Feb 5.6 22:34:56 10° NW 22:37:44 24° NNW 22:37:44 24° NNW visible
26 Feb 4.1 18:04:52 10° WSW 18:11:28 63° NW 18:18:27 10° NE visible
26 Feb 5.0 19:57:31 10° WNW 20:03:40 34° N 20:07:03 23° NE visible
26 Feb 5.2 21:49:57 10° NW 21:54:29 32° NNW 21:54:29 32° NNW visible
26 Feb 6.1 23:41:14 10° NW 23:41:56 13° NW 23:41:56 13° NW visible
27 Feb 3.8 17:19:55 10° SW 17:26:33 82° NW 17:33:35 10° NE visible
27 Feb 4.8 19:12:10 10° W 19:18:25 38° NNW 19:23:46 15° NE visible
27 Feb 4.9 21:04:53 10° NW 21:11:08 34° N 21:11:12 34° N visible
27 Feb 5.7 22:56:25 10° NW 22:58:39 22° NW 22:58:39 22° NW visible
28 Feb 4.6 18:26:50 10° W 18:33:14 44° NNW 18:39:59 10° NE visible
28 Feb 5.0 20:19:41 10° WNW 20:25:50 33° N 20:27:54 28° NNE visible
28 Feb 5.2 22:11:33 10° NW 22:15:21 32° NNW 22:15:21 32° NNW visible
29 Feb 6.2 00:02:38 10° NW 00:02:47 11° NW 00:02:47 11° NW visible
29 Feb 4.3 17:41:36 10° WSW 17:48:08 55° NNW 17:55:03 10° NE visible
29 Feb 5.0 19:34:23 10° WNW 19:40:31 33° N 19:44:35 20° NE visible
29 Feb 4.9 21:26:37 10° NW 21:32:01 38° N 21:32:01 38° N visible
29 Feb 5.8 23:17:48 10° NW 23:19:28 19° NW 23:19:28 19° NW visible
01 Mar 4.9 18:49:02 10° W 18:55:14 36° NNW 19:01:15 12° NE visible
01 Mar 4.8 20:41:37 10° NW 20:47:59 36° NNE 20:48:41 35° NNE visible
01 Mar 5.3 22:32:59 10° NW 22:36:08 29° NW 22:36:08 29° NW visible
